QPF
0.01 0.01 0.02 0.04 0.08 0.08 0.04 0.04 0.07 0.07 0.07 0.07 0.07 0.10 0.12 0.14 0.15 0.17 0.16 0.17 0.18 0.20 0.19 0.17 0.16 0.16 0.17 0.18 0.18 0.19 0.18 0.12 0.09 0.08 0.07 0.06 0.05 0.04 0.04 0.03 0.03 0.03 0.03
0.01 0.01 0.01 0.01 0.04 0.04 0.03 0.05 0.08 0.08 0.08 0.09 0.11 0.12 0.12 0.14 0.16 0.16 0.13 0.14 0.17 0.18 0.18 0.17 0.15 0.15 0.14 0.15 0.17 0.19 0.17 0.12 0.10 0.08 0.07 0.06 0.05 0.03 0.01 0.01 0.01 0.02 0.04
0.01 0.01 0.01 0.02 0.02 0.02 0.04 0.04 0.05 0.06 0.06 0.06 0.08 0.08 0.09 0.14 0.18 0.17 0.14 0.12 0.14 0.16 0.16 0.16 0.16 0.16 0.16 0.16 0.19 0.18 0.14 0.13 0.10 0.08 0.08 0.06 0.06 0.04 0.02 0.01 0.01 0.01 0.02
0.01 0.01 0.01 0.02 0.02 0.02 0.03 0.04 0.06 0.07 0.07 0.06 0.05 0.04 0.05 0.07 0.09 0.11 0.11 0.10 0.09 0.10 0.14 0.17 0.16 0.16 0.16 0.17 0.18 0.20 0.19 0.16 0.14 0.12 0.08 0.05 0.07 0.08 0.07 0.03 0.01 0.01 0.02
0.00 0.00 0.00 0.01 0.02 0.03 0.05 0.08 0.09 0.08 0.06 0.05 0.04 0.03 0.03 0.04 0.04 0.04 0.05 0.06 0.05 0.07 0.11 0.16 0.17 0.17 0.17 0.15 0.15 0.19 0.19 0.19 0.17 0.17 0.14 0.11 0.09 0.07 0.07 0.07 0.04 0.02 0.01
0.01 0.00 0.00 0.01 0.01 0.03 0.05 0.06 0.05 0.05 0.04 0.03 0.02 0.02 0.02 0.02 0.02 0.02 0.03 0.03 0.02 0.03 0.05 0.10 0.14 0.16 0.18 0.21 0.19 0.15 0.15 0.16 0.17 0.17 0.16 0.17 0.13 0.09 0.06 0.06 0.06 0.04 0.02
0.00 0.00 0.00 0.00 0.01 0.02 0.04 0.04 0.03 0.03 0.03 0.03 0.03 0.02 0.03 0.03 0.03 0.02 0.02 0.02 0.02 0.01 0.02 0.03 0.04 0.07 0.09 0.14 0.18 0.18 0.16 0.16 0.15 0.15 0.15 0.15 0.13 0.10 0.08 0.06 0.05 0.05 0.03
0.01 0.00 0.00 0.01 0.01 0.01 0.02 0.02 0.03 0.05 0.06 0.06 0.06 0.05 0.05 0.04 0.04 0.05 0.04 0.04 0.02 0.02 0.02 0.02 0.03 0.03 0.04 0.07 0.10 0.13 0.15 0.18 0.19 0.17 0.17 0.16 0.13 0.11 0.08 0.07 0.07 0.08 0.06
0.01 0.00 0.00 0.01 0.01 0.01 0.01 0.02 0.02 0.04 0.05 0.05 0.06 0.06 0.06 0.05 0.04 0.05 0.04 0.03 0.01 0.01 0.02 0.03 0.03 0.03 0.02 0.02 0.04 0.06 0.08 0.11 0.15 0.17 0.18 0.16 0.13 0.11 0.09 0.07 0.07 0.08 0.09
0.00 0.00 0.01 0.01 0.01 0.00 0.00 0.00 0.01 0.01 0.02 0.03 0.04 0.04 0.05 0.05 0.04 0.03 0.03 0.02 0.02 0.02 0.02 0.01 0.01 0.02 0.02 0.02 0.02 0.03 0.03 0.05 0.07 0.08 0.10 0.14 0.13 0.10 0.09 0.08 0.07 0.07 0.08
0.00 0.00 0.00 0.00 0.00 0.00 0.00 0.00 0.00 0.00 0.01 0.01 0.02 0.02 0.03 0.04 0.04 0.04 0.04 0.04 0.03 0.02 0.02 0.02 0.02 0.02 0.01 0.02 0.02 0.02 0.02 0.03 0.04 0.04 0.05 0.07 0.09 0.10 0.10 0.09 0.08 0.07 0.07
0.00 0.00 0.00 0.00 0.00 0.00 0.00 0.00 0.00 0.00 0.00 0.00 0.01 0.01 0.02 0.03 0.04 0.05 0.05 0.05 0.04 0.03 0.02 0.02 0.03 0.03 0.02 0.03 0.03 0.03 0.03 0.03 0.03 0.04 0.04 0.04 0.06 0.08 0.09 0.09 0.09 0.08 0.08
0.00 0.00 0.00 0.00 0.00 0.00 0.00 0.00 0.00 0.00 0.00 0.00 0.00 0.01 0.01 0.02 0.03 0.04 0.04 0.04 0.04 0.03 0.02 0.02 0.03 0.03 0.03 0.02 0.03 0.04 0.04 0.04 0.03 0.03 0.03 0.03 0.04 0.06 0.07 0.09 0.09 0.08 0.07
0.00 0.00 0.00 0.00 0.00 0.00 0.00 0.00 0.00 0.00 0.00 0.00 0.00 0.00 0.01 0.01 0.01 0.02 0.02 0.03 0.03 0.03 0.03 0.03 0.03 0.03 0.03 0.03 0.02 0.02 0.03 0.05 0.05 0.04 0.04 0.03 0.03 0.04 0.05 0.07 0.09 0.09 0.08
0.00 0.00 0.00 0.00 0.00 0.00 0.00 0.00 0.00 0.00 0.00 0.00 0.01 0.01 0.01 0.01 0.01 0.02 0.02 0.03 0.03 0.03 0.04 0.05 0.04 0.04 0.04 0.03 0.03 0.03 0.04 0.05 0.05 0.05 0.05 0.05 0.03 0.02 0.03 0.03 0.06 0.08 0.09
0.00 0.00 0.00 0.00 0.00 0.00 0.00 0.00 0.00 0.01 0.01 0.01 0.01 0.02 0.02 0.02 0.02 0.02 0.03 0.04 0.04 0.05 0.06 0.07 0.07 0.06 0.04 0.04 0.04 0.04 0.04 0.05 0.05 0.05 0.05 0.05 0.05 0.03 0.01 0.01 0.02 0.03 0.06
0.00 0.00 0.00 0.00 0.00 0.00 0.00 0.01 0.01 0.01 0.01 0.02 0.02 0.03 0.03 0.03 0.03 0.03 0.03 0.04 0.06 0.08 0.09 0.09 0.09 0.09 0.08 0.07 0.06 0.05 0.05 0.05 0.05 0.05 0.06 0.04 0.03 0.04 0.03 0.02 0.01 0.01 0.01
0.00 0.00 0.00 0.00 0.00 0.00 0.01 0.01 0.01 0.01 0.02 0.02 0.03 0.03 0.03 0.03 0.04 0.05 0.05 0.07 0.09 0.09 0.10 0.10 0.10 0.11 0.09 0.07 0.06 0.06 0.06 0.05 0.05 0.05 0.05 0.05 0.04 0.03 0.04 0.04 0.03 0.02 0.01
0.00 0.00 0.00 0.00 0.00 0.01 0.01 0.01 0.01 0.02 0.02 0.03 0.03 0.03 0.04 0.05 0.05 0.05 0.07 0.09 0.10 0.10 0.10 0.10 0.10 0.12 0.12 0.09 0.06 0.04 0.05 0.05 0.04 0.04 0.04 0.05 0.05 0.04 0.03 0.04 0.05 0.04 0.03
0.00 0.00 0.00 0.00 0.00 0.01 0.01 0.01 0.02 0.02 0.03 0.03 0.03 0.04 0.06 0.07 0.06 0.07 0.09 0.10 0.11 0.10 0.10 0.09 0.10 0.11 0.13 0.11 0.06 0.04 0.05 0.05 0.05 0.06 0.06 0.03 0.03 0.04 0.03 0.04 0.05 0.04 0.04
0.00 0.00 0.00 0.00 0.01 0.01 0.01 0.02 0.02 0.03 0.03 0.03 0.03 0.04 0.06 0.07 0.07 0.09 0.10 0.11 0.11 0.11 0.10 0.11 0.12 0.12 0.12 0.10 0.04 0.03 0.04 0.05 0.06 0.07 0.07 0.06 0.02 0.01 0.01 0.02 0.04 0.04 0.04
0.00 0.00 0.00 0.00 0.01 0.01 0.01 0.02 0.03 0.03 0.03 0.03 0.04 0.05 0.06 0.06 0.05 0.08 0.10 0.11 0.12 0.11 0.11 0.11 0.12 0.13 0.12 0.09 0.06 0.02 0.02 0.03 0.07 0.08 0.08 0.07 0.03 0.01 0.01 0.01 0.01 0.01 0.01
0.00 0.00 0.00 0.00 0.01 0.01 0.02 0.03 0.03 0.03 0.03 0.03 0.05 0.05 0.06 0.07 0.08 0.09 0.10 0.11 0.12 0.11 0.11 0.11 0.11 0.12 0.12 0.11 0.04 0.01 0.01 0.01 0.03 0.06 0.06 0.05 0.03 0.02 0.01 0.01 0.01 0.01 0.01
0.00 0.00 0.00 0.01 0.01 0.01 0.02 0.03 0.03 0.03 0.04 0.05 0.05 0.05 0.06 0.07 0.08 0.09 0.10 0.11 0.11 0.10 0.09 0.10 0.11 0.12 0.13 0.14 0.11 0.07 0.04 0.02 0.01 0.02 0.03 0.02 0.02 0.01 0.01 0.01 0.01 0.01 0.01
0.00 0.00 0.01 0.01 0.01 0.01 0.02 0.02 0.02 0.04 0.04 0.05 0.04 0.05 0.06 0.07 0.09 0.10 0.09 0.07 0.07 0.04 0.04 0.06 0.08 0.10 0.11 0.08 0.06 0.07 0.09 0.08 0.07 0.06 0.08 0.07 0.05 0.03 0.02 0.02 0.03 0.03 0.02
0.00 0.00 0.01 0.01 0.01 0.01 0.02 0.02 0.02 0.04 0.05 0.05 0.05 0.05 0.06 0.08 0.10 0.11 0.10 0.05 0.02 0.01 0.01 0.01 0.02 0.03 0.03 0.01 0.00 0.01 0.01 0.02 0.03 0.04 0.08 0.10 0.10 0.08 0.08 0.07 0.06 0.06 0.05
MSLP
1009.47 1009.66 1009.76 1009.80 1009.78 1009.74 1009.72 1009.75 1009.83 1009.97 1010.13 1010.29 1010.40 1010.44 1010.39 1010.26 1010.07 1009.84 1009.61 1009.40 1009.21 1009.05 1008.89 1008.71 1008.49 1008.23 1007.94 1007.65 1007.39 1007.23 1007.18 1007.28 1007.52 1007.87 1008.29 1008.73 1009.15 1009.50 1009.78 1009.98 1010.14 1010.30 1010.50
1009.92 1010.09 1010.19 1010.22 1010.20 1010.14 1010.08 1010.06 1010.10 1010.19 1010.33 1010.46 1010.57 1010.61 1010.55 1010.41 1010.18 1009.91 1009.62 1009.35 1009.11 1008.90 1008.71 1008.51 1008.29 1008.02 1007.72 1007.40 1007.11 1006.89 1006.79 1006.83 1007.02 1007.35 1007.77 1008.23 1008.69 1009.11 1009.44 1009.70 1009.90 1010.08 1010.26
1010.08 1010.20 1010.29 1010.33 1010.31 1010.25 1010.18 1010.13 1010.14 1010.21 1010.33 1010.46 1010.57 1010.62 1010.57 1010.42 1010.19 1009.89 1009.56 1009.25 1008.97 1008.74 1008.53 1008.33 1008.11 1007.86 1007.57 1007.25 1006.94 1006.69 1006.54 1006.52 1006.64 1006.92 1007.30 1007.76 1008.24 1008.69 1009.08 1009.40 1009.64 1009.85 1010.04
1010.01 1010.08 1010.15 1010.20 1010.20 1010.15 1010.08 1010.03 1010.02 1010.07 1010.18 1010.31 1010.43 1010.49 1010.46 1010.33 1010.10 1009.79 1009.45 1009.12 1008.81 1008.56 1008.35 1008.16 1007.97 1007.75 1007.49 1007.20 1006.90 1006.63 1006.44 1006.35 1006.41 1006.61 1006.93 1007.35 1007.81 1008.27 1008.69 1009.05 1009.35 1009.59 1009.80
1009.79 1009.82 1009.89 1009.96 1009.99 1009.97 1009.91 1009.86 1009.83 1009.87 1009.96 1010.08 1010.20 1010.28 1010.27 1010.16 1009.94 1009.64 1009.30 1008.95 1008.63 1008.37 1008.17 1008.00 1007.85 1007.68 1007.48 1007.23 1006.96 1006.70 1006.48 1006.34 1006.32 1006.44 1006.68 1007.02 1007.43 1007.87 1008.29 1008.68 1009.01 1009.29 1009.53
1009.50 1009.53 1009.63 1009.74 1009.81 1009.81 1009.77 1009.71 1009.66 1009.67 1009.73 1009.84 1009.95 1010.04 1010.04 1009.95 1009.75 1009.46 1009.11 1008.76 1008.44 1008.17 1007.98 1007.84 1007.73 1007.62 1007.49 1007.31 1007.09 1006.85 1006.62 1006.45 1006.37 1006.39 1006.54 1006.79 1007.13 1007.51 1007.92 1008.30 1008.66 1008.97 1009.24
1009.25 1009.31 1009.46 1009.63 1009.74 1009.77 1009.74 1009.66 1009.58 1009.55 1009.57 1009.64 1009.73 1009.81 1009.82 1009.73 1009.54 1009.25 1008.91 1008.55 1008.22 1007.95 1007.76 1007.65 1007.59 1007.54 1007.48 1007.38 1007.23 1007.04 1006.83 1006.64 1006.51 1006.46 1006.52 1006.67 1006.92 1007.24 1007.60 1007.97 1008.33 1008.66 1008.96
1009.09 1009.22 1009.45 1009.68 1009.83 1009.89 1009.85 1009.75 1009.63 1009.54 1009.51 1009.52 1009.58 1009.62 1009.61 1009.52 1009.32 1009.04 1008.69 1008.32 1007.98 1007.70 1007.51 1007.42 1007.39 1007.41 1007.42 1007.40 1007.33 1007.20 1007.04 1006.86 1006.70 1006.60 1006.58 1006.65 1006.82 1007.07 1007.38 1007.72 1008.08 1008.43 1008.75
1009.07 1009.31 1009.61 1009.90 1010.09 1010.16 1010.10 1009.96 1009.79 1009.64 1009.54 1009.49 1009.49 1009.49 1009.45 1009.34 1009.13 1008.83 1008.46 1008.07 1007.71 1007.42 1007.23 1007.14 1007.14 1007.19 1007.27 1007.33 1007.34 1007.29 1007.18 1007.03 1006.88 1006.76 1006.69 1006.71 1006.82 1007.01 1007.28 1007.60 1007.95 1008.31 1008.66
1009.21 1009.55 1009.93 1010.25 1010.46 1010.52 1010.44 1010.26 1010.04 1009.82 1009.65 1009.53 1009.47 1009.41 1009.33 1009.18 1008.94 1008.62 1008.23 1007.82 1007.43 1007.12 1006.90 1006.81 1006.82 1006.90 1007.02 1007.14 1007.22 1007.25 1007.20 1007.11 1006.99 1006.88 1006.80 1006.80 1006.88 1007.05 1007.30 1007.61 1007.96 1008.34 1008.70
1009.51 1009.92 1010.34 1010.68 1010.88 1010.92 1010.80 1010.58 1010.30 1010.02 1009.79 1009.61 1009.48 1009.36 1009.23 1009.03 1008.76 1008.41 1007.99 1007.55 1007.14 1006.79 1006.55 1006.44 1006.43 1006.53 1006.67 1006.83 1006.97 1007.05 1007.07 1007.04 1006.97 1006.90 1006.86 1006.87 1006.96 1007.13 1007.39 1007.72 1008.09 1008.49 1008.88
1009.91 1010.35 1010.77 1011.08 1011.25 1011.25 1011.10 1010.83 1010.51 1010.19 1009.91 1009.68 1009.49 1009.32 1009.13 1008.89 1008.57 1008.18 1007.73 1007.27 1006.82 1006.45 1006.18 1006.03 1006.01 1006.09 1006.23 1006.41 1006.57 1006.70 1006.78 1006.81 1006.81 1006.80 1006.81 1006.87 1007.00 1007.21 1007.50 1007.86 1008.27 1008.70 1009.13
1010.37 1010.78 1011.15 1011.41 1011.52 1011.46 1011.27 1010.98 1010.64 1010.30 1009.98 1009.71 1009.47 1009.25 1009.01 1008.71 1008.35 1007.93 1007.45 1006.96 1006.49 1006.09 1005.79 1005.61 1005.56 1005.61 1005.73 1005.90 1006.08 1006.23 1006.35 1006.44 1006.49 1006.55 1006.63 1006.75 1006.94 1007.20 1007.55 1007.96 1008.41 1008.88 1009.34
1010.81 1011.16 1011.44 1011.60 1011.64 1011.53 1011.31 1011.00 1010.65 1010.30 1009.98 1009.68 1009.41 1009.13 1008.84 1008.50 1008.09 1007.63 1007.12 1006.61 1006.13 1005.71 1005.38 1005.18 1005.09 1005.11 1005.20 1005.35 1005.51 1005.67 1005.81 1005.94 1006.05 1006.16 1006.31 1006.50 1006.75 1007.08 1007.47 1007.93 1008.42 1008.93 1009.42
1011.19 1011.43 1011.59 1011.66 1011.61 1011.46 1011.21 1010.90 1010.56 1010.22 1009.89 1009.58 1009.28 1008.96 1008.62 1008.22 1007.77 1007.27 1006.75 1006.22 1005.73 1005.30 1004.96 1004.74 1004.63 1004.61 1004.67 1004.79 1004.93 1005.08 1005.23 1005.37 1005.52 1005.68 1005.88 1006.12 1006.43 1006.80 1007.24 1007.73 1008.25 1008.78 1009.29
1011.46 1011.57 1011.62 1011.58 1011.46 1011.27 1011.02 1010.72 1010.40 1010.08 1009.75 1009.43 1009.10 1008.74 1008.34 1007.89 1007.40 1006.86 1006.32 1005.78 1005.29 1004.86 1004.53 1004.31 1004.18 1004.14 1004.18 1004.27 1004.38 1004.52 1004.66 1004.81 1004.97 1005.16 1005.39 1005.67 1006.00 1006.40 1006.85 1007.35 1007.87 1008.39 1008.90
1011.60 1011.59 1011.54 1011.42 1011.25 1011.03 1010.78 1010.49 1010.20 1009.89 1009.57 1009.24 1008.87 1008.46 1008.01 1007.51 1006.97 1006.40 1005.84 1005.30 1004.82 1004.42 1004.10 1003.89 1003.76 1003.72 1003.75 1003.82 1003.92 1004.04 1004.17 1004.32 1004.49 1004.68 1004.92 1005.20 1005.54 1005.92 1006.36 1006.82 1007.32 1007.81 1008.30
1011.62 1011.53 1011.39 1011.22 1011.02 1010.79 1010.54 1010.28 1010.00 1009.71 1009.38 1009.02 1008.61 1008.15 1007.64 1007.09 1006.50 1005.91 1005.33 1004.80 1004.34 1003.97 1003.68 1003.50 1003.40 1003.37 1003.40 1003.47 1003.57 1003.68 1003.81 1003.95 1004.11 1004.30 1004.53 1004.79 1005.10 1005.44 1005.83 1006.24 1006.68 1007.12 1007.55
1011.55 1011.41 1011.24 1011.04 1010.83 1010.60 1010.36 1010.11 1009.84 1009.53 1009.19 1008.79 1008.34 1007.82 1007.25 1006.65 1006.02 1005.41 1004.83 1004.31 1003.88 1003.54 1003.30 1003.16 1003.10 1003.10 1003.16 1003.25 1003.35 1003.47 1003.60 1003.74 1003.89 1004.06 1004.26 1004.48 1004.74 1005.03 1005.35 1005.69 1006.05 1006.42 1006.79
1011.45 1011.30 1011.12 1010.91 1010.70 1010.47 1010.24 1009.98 1009.70 1009.37 1008.99 1008.55 1008.04 1007.47 1006.85 1006.20 1005.55 1004.92 1004.35 1003.86 1003.46 1003.17 1002.98 1002.88 1002.87 1002.92 1003.01 1003.12 1003.25 1003.39 1003.52 1003.66 1003.80 1003.95 1004.12 1004.30 1004.50 1004.73 1004.97 1005.24 1005.52 1005.81 1006.11
1011.35 1011.21 1011.04 1010.85 1010.63 1010.41 1010.16 1009.89 1009.57 1009.21 1008.78 1008.29 1007.72 1007.10 1006.44 1005.77 1005.10 1004.47 1003.92 1003.46 1003.10 1002.85 1002.71 1002.67 1002.71 1002.80 1002.93 1003.08 1003.24 1003.39 1003.54 1003.67 1003.81 1003.94 1004.07 1004.22 1004.37 1004.53 1004.71 1004.91 1005.11 1005.34 1005.58
1011.28 1011.16 1011.01 1010.83 1010.62 1010.38 1010.10 1009.79 1009.43 1009.01 1008.53 1007.98 1007.37 1006.71 1006.03 1005.34 1004.68 1004.07 1003.54 1003.12 1002.81 1002.61 1002.52 1002.52 1002.60 1002.74 1002.90 1003.08 1003.26 1003.43 1003.58 1003.72 1003.84 1003.96 1004.07 1004.17 1004.28 1004.40 1004.53 1004.68 1004.84 1005.02 1005.22
1011.23 1011.15 1011.01 1010.83 1010.61 1010.34 1010.03 1009.67 1009.25 1008.77 1008.23 1007.63 1006.98 1006.30 1005.61 1004.92 1004.28 1003.71 1003.22 1002.84 1002.58 1002.43 1002.38 1002.42 1002.53 1002.69 1002.88 1003.08 1003.27 1003.44 1003.60 1003.73 1003.84 1003.94 1004.02 1004.10 1004.18 1004.27 1004.37 1004.49 1004.63 1004.79 1004.98
1011.20 1011.13 1011.01 1010.82 1010.57 1010.27 1009.91 1009.49 1009.01 1008.47 1007.88 1007.24 1006.57 1005.88 1005.19 1004.53 1003.92 1003.40 1002.96 1002.63 1002.41 1002.30 1002.28 1002.35 1002.48 1002.65 1002.85 1003.04 1003.23 1003.39 1003.54 1003.65 1003.74 1003.82 1003.88 1003.94 1004.00 1004.07 1004.17 1004.28 1004.42 1004.58 1004.77
1011.15 1011.08 1010.96 1010.76 1010.49 1010.15 1009.74 1009.26 1008.73 1008.14 1007.50 1006.83 1006.15 1005.46 1004.79 1004.17 1003.61 1003.14 1002.75 1002.47 1002.30 1002.22 1002.23 1002.31 1002.44 1002.61 1002.79 1002.97 1003.13 1003.27 1003.38 1003.47 1003.53 1003.58 1003.62 1003.65 1003.70 1003.76 1003.85 1003.97 1004.12 1004.29 1004.50
1011.04 1010.98 1010.84 1010.63 1010.34 1009.97 1009.52 1009.00 1008.43 1007.80 1007.13 1006.45 1005.76 1005.09 1004.45 1003.87 1003.36 1002.94 1002.61 1002.38 1002.24 1002.19 1002.21 1002.29 1002.42 1002.56 1002.72 1002.86 1002.98 1003.08 1003.15 1003.20 1003.22 1003.23 1003.24 1003.25 1003.28 1003.33 1003.41 1003.53 1003.69 1003.87 1004.09
Thickness
5768 5767 5766 5764 5761 5757 5754 5752 5749 5747 5745 5742 5738 5735 5732 5733 5732 5732 5731 5727 5726 5725 5724 5722 5723 5724 5723 5724 5724 5723 5722 5723 5725 5723 5724 5729 5736 5738 5739 5741 5742 5742 5742
5757 5757 5757 5755 5752 5748 5745 5743 5740 5737 5735 5732 5730 5728 5726 5726 5725 5724 5723 5721 5719 5717 5716 5715 5715 5716 5717 5717 5718 5717 5716 5718 5720 5716 5713 5714 5721 5730 5738 5738 5738 5740 5741
5751 5749 5748 5747 5745 5741 5738 5736 5731 5728 5725 5723 5722 5720 5718 5716 5715 5714 5713 5713 5712 5710 5708 5708 5709 5709 5710 5710 5711 5711 5710 5710 5714 5716 5711 5708 5708 5718 5728 5733 5736 5737 5738
5748 5745 5742 5739 5738 5735 5733 5728 5724 5719 5716 5714 5711 5707 5704 5702 5703 5703 5704 5703 5703 5702 5701 5701 5701 5701 5703 5703 5704 5705 5706 5705 5704 5709 5712 5714 5714 5709 5711 5721 5729 5732 5733
5744 5741 5738 5735 5733 5731 5726 5721 5716 5711 5707 5703 5699 5696 5694 5693 5693 5693 5693 5692 5693 5693 5693 5692 5692 5693 5694 5695 5696 5697 5697 5698 5698 5700 5703 5706 5708 5710 5705 5705 5714 5722 5727
5740 5737 5734 5731 5727 5724 5719 5713 5707 5702 5698 5694 5690 5686 5683 5681 5680 5680 5680 5681 5681 5682 5683 5683 5683 5683 5683 5684 5686 5687 5687 5689 5690 5693 5695 5697 5697 5699 5701 5701 5705 5709 5717
5735 5730 5726 5721 5717 5713 5708 5703 5698 5693 5689 5685 5681 5677 5674 5671 5669 5669 5669 5669 5669 5670 5671 5673 5673 5672 5673 5674 5675 5676 5677 5679 5681 5683 5687 5690 5692 5695 5696 5696 5698 5702 5709
5728 5724 5720 5714 5709 5703 5698 5693 5688 5683 5680 5675 5671 5668 5665 5662 5661 5660 5659 5658 5658 5659 5660 5661 5660 5661 5662 5664 5664 5665 5666 5669 5671 5674 5678 5681 5684 5688 5689 5691 5691 5690 5696
5723 5718 5713 5707 5701 5695 5689 5683 5678 5673 5669 5665 5661 5658 5656 5653 5650 5649 5648 5647 5647 5648 5648 5648 5648 5649 5650 5651 5652 5652 5654 5657 5659 5663 5667 5670 5674 5678 5682 5685 5687 5684 5682
5717 5711 5705 5699 5693 5687 5680 5674 5667 5661 5657 5654 5650 5648 5645 5642 5640 5638 5637 5635 5635 5634 5634 5634 5635 5636 5637 5638 5639 5640 5642 5644 5646 5649 5654 5658 5662 5666 5671 5675 5678 5681 5680
5708 5702 5696 5689 5682 5676 5669 5662 5655 5650 5645 5641 5637 5634 5632 5630 5628 5626 5624 5623 5622 5621 5620 5620 5620 5621 5623 5624 5625 5627 5629 5631 5633 5636 5640 5644 5649 5653 5657 5663 5667 5671 5674
5702 5694 5686 5678 5670 5663 5656 5650 5644 5638 5634 5630 5625 5621 5618 5615 5612 5611 5610 5608 5607 5607 5606 5606 5606 5607 5609 5610 5611 5613 5616 5618 5620 5623 5626 5631 5635 5640 5644 5648 5653 5658 5663
5692 5684 5675 5666 5658 5651 5644 5638 5633 5627 5622 5617 5612 5608 5604 5600 5597 5596 5595 5593 5592 5592 5592 5592 5592 5592 5594 5596 5598 5600 5602 5604 5607 5611 5614 5618 5621 5625 5630 5635 5640 5645 5652
5682 5674 5664 5656 5648 5641 5634 5628 5622 5616 5611 5605 5600 5595 5591 5587 5585 5583 5581 5579 5577 5577 5577 5577 5577 5578 5579 5581 5584 5586 5588 5591 5595 5598 5602 5606 5609 5613 5617 5622 5627 5632 5637
5674 5665 5655 5647 5639 5632 5625 5619 5612 5606 5600 5594 5589 5584 5581 5577 5573 5570 5568 5565 5563 5563 5562 5562 5563 5563 5564 5567 5570 5572 5575 5577 5581 5585 5589 5594 5598 5602 5606 5611 5615 5620 5624
5666 5657 5648 5639 5631 5623 5617 5609 5603 5597 5592 5586 5580 5576 5571 5567 5563 5559 5557 5554 5551 5550 5549 5548 5548 5549 5552 5555 5555 5558 5561 5564 5568 5571 5576 5581 5585 5591 5595 5599 5604 5608 5613
5658 5649 5640 5632 5624 5617 5609 5601 5595 5590 5583 5577 5572 5567 5562 5558 5554 5550 5546 5543 5540 5539 5537 5537 5537 5538 5539 5540 5541 5543 5546 5551 5555 5559 5563 5568 5576 5579 5584 5587 5592 5597 5603
5651 5642 5634 5626 5619 5611 5603 5595 5589 5582 5576 5571 5566 5560 5555 5551 5546 5542 5538 5534 5532 5530 5529 5529 5529 5529 5530 5531 5533 5533 5535 5540 5544 5549 5553 5556 5561 5568 5573 5577 5582 5586 5593
5646 5637 5629 5621 5613 5604 5596 5589 5582 5577 5571 5565 5559 5554 5549 5544 5540 5535 5532 5528 5526 5524 5523 5523 5523 5523 5523 5523 5524 5524 5527 5531 5535 5540 5544 5548 5551 5557 5562 5567 5572 5576 5582
5643 5633 5625 5616 5607 5598 5591 5583 5577 5571 5565 5559 5554 5549 5544 5539 5535 5531 5528 5525 5522 5520 5520 5519 5518 5518 5518 5518 5517 5517 5520 5523 5527 5532 5535 5540 5544 5547 5552 5557 5562 5566 5571
5638 5629 5620 5611 5602 5594 5587 5579 5573 5567 5562 5556 5551 5546 5541 5536 5533 5529 5525 5522 5520 5518 5517 5517 5516 5516 5516 5514 5513 5512 5514 5517 5520 5524 5529 5534 5537 5541 5544 5550 5555 5559 5563
5634 5625 5615 5607 5598 5591 5584 5576 5570 5565 5559 5554 5549 5544 5539 5535 5533 5528 5524 5521 5518 5517 5516 5515 5515 5515 5514 5512 5511 5509 5509 5511 5514 5518 5523 5528 5532 5534 5537 5542 5548 5551 5554
5629 5621 5612 5603 5595 5588 5581 5574 5568 5563 5558 5552 5547 5543 5539 5535 5531 5527 5524 5521 5518 5516 5515 5514 5513 5513 5513 5511 5508 5506 5505 5505 5508 5513 5517 5521 5524 5527 5530 5535 5540 5543 5548
5626 5617 5609 5600 5593 5586 5579 5572 5567 5561 5556 5551 5547 5544 5540 5536 5532 5528 5525 5521 5518 5516 5514 5512 5511 5511 5511 5509 5508 5506 5505 5503 5505 5508 5512 5514 5518 5521 5526 5530 5532 5537 5543
5623 5614 5605 5597 5590 5584 5578 5572 5566 5560 5555 5551 5548 5545 5541 5538 5533 5530 5526 5522 5519 5513 5510 5510 5509 5508 5508 5505 5502 5502 5505 5506 5507 5508 5511 5514 5516 5519 5524 5529 5533 5536 5540
5620 5612 5603 5596 5589 5583 5577 5571 5565 5560 5555 5552 5549 5546 5543 5539 5536 5533 5529 5523 5518 5513 5509 5505 5503 5505 5502 5501 5500 5500 5500 5501 5502 5505 5510 5513 5516 5519 5524 5528 5532 5536 5540